• In Czech Republic
  • List of Countries
  • For 7 days
  • Water Temperature
  • Satellite Maps
  • Weather Map
  • Weather Widgets
  • user-avatar
    Login

    Hourly Weather Konstantyna

    Today, 26 July, Wednesday

    Time Temperature Precipitation Wind Pressure Humidity
    00:00 +23°C° 0 mm 1 mps 709 mmHg 70%
    01:00 +23°C° 0 mm 1 mps 709 mmHg 72%
    02:00 +23°C° 0 mm 1 mps 708 mmHg 74%
    03:00 +22°C° 0 mm 1 mps 708 mmHg 76%
    04:00 +22°C° 0 mm 1 mps 708 mmHg 75%
    05:00 +22°C° 0 mm 1 mps 709 mmHg 74%
    06:00 +22°C° 0 mm 1 mps 709 mmHg 73%
    07:00 +23°C° 0 mm 1 mps 709 mmHg 66%
    08:00 +25°C° 0 mm 1 mps 709 mmHg 59%
    09:00 +26°C° 0 mm 2 mps 710 mmHg 52%
    10:00 +27°C° 0 mm 2 mps 710 mmHg 46%
    11:00 +29°C° 0 mm 3 mps 710 mmHg 40%
    12:00 +30°C° 0 mm 3 mps 710 mmHg 34%
    13:00 +32°C° 0 mm 4 mps 710 mmHg 34%
    14:00 +32°C° 0 mm 5 mps 710 mmHg 33%
    15:00 +32°C° 0 mm 5 mps 709 mmHg 32%
    16:00 +30°C° 0 mm 5 mps 709 mmHg 36%
    17:00 +29°C° 0 mm 5 mps 709 mmHg 40%
    18:00 +27°C° 0 mm 4 mps 709 mmHg 44%
    19:00 +26°C° 0 mm 3 mps 710 mmHg 50%
    20:00 +25°C° 0 mm 3 mps 710 mmHg 55%
    21:00 +24°C° 0 mm 2 mps 710 mmHg 60%
    22:00 +23°C° 0 mm 1 mps 710 mmHg 61%
    23:00 +23°C° 0 mm 1 mps 710 mmHg 63%

    Tomorrow, 27 July, Thursday

    Time Temperature Precipitation Wind Pressure Humidity
    00:00 +23°C° 0 mm 1 mps 710 mmHg 65%
    01:00 +22°C° 0 mm 1 mps 710 mmHg 65%
    02:00 +22°C° 0 mm 1 mps 710 mmHg 66%
    03:00 +22°C° 0 mm 1 mps 710 mmHg 66%
    04:00 +20°C° 0 mm 0 mps 710 mmHg 63%
    05:00 +21°C° 0 mm 0 mps 710 mmHg 60%
    06:00 +21°C° 0 mm 0 mps 711 mmHg 57%
    07:00 +23°C° 0 mm 0 mps 711 mmHg 51%
    08:00 +26°C° 0 mm 1 mps 711 mmHg 44%
    09:00 +28°C° 0 mm 1 mps 712 mmHg 38%
    10:00 +29°C° 0 mm 2 mps 712 mmHg 34%
    11:00 +30°C° 0 mm 2 mps 712 mmHg 29%
    12:00 +33°C° 0 mm 3 mps 712 mmHg 25%
    13:00 +33°C° 0 mm 3 mps 712 mmHg 25%
    14:00 +33°C° 0 mm 3 mps 712 mmHg 25%
    15:00 +34°C° 0 mm 3 mps 711 mmHg 25%
    16:00 +33°C° 0 mm 3 mps 711 mmHg 28%
    17:00 +31°C° 0 mm 3 mps 711 mmHg 30%
    18:00 +31°C° 0 mm 3 mps 711 mmHg 32%
    19:00 +29°C° 0 mm 3 mps 711 mmHg 36%
    20:00 +28°C° 0 mm 2 mps 712 mmHg 40%
    21:00 +27°C° 0 mm 2 mps 712 mmHg 43%
    22:00 +27°C° 0 mm 1 mps 712 mmHg 44%
    23:00 +27°C° 0 mm 1 mps 711 mmHg 44%

    Day after tomorrow, 28 July, Friday

    Time Temperature Precipitation Wind Pressure Humidity
    00:00 +26°C° 0 mm 1 mps 711 mmHg 45%
    01:00 +26°C° 0 mm 1 mps 711 mmHg 45%
    02:00 +26°C° 0 mm 1 mps 711 mmHg 45%
    03:00 +25°C° 0 mm 1 mps 711 mmHg 46%
    04:00 +26°C° 0 mm 1 mps 711 mmHg 44%
    05:00 +27°C° 0 mm 1 mps 711 mmHg 42%
    06:00 +27°C° 0 mm 1 mps 711 mmHg 40%
    07:00 +29°C° 0 mm 1 mps 712 mmHg 35%
    08:00 +32°C° 0 mm 1 mps 712 mmHg 30%
    09:00 +34°C° 0 mm 1 mps 713 mmHg 25%
    10:00 +36°C° 0 mm 2 mps 713 mmHg 23%
    11:00 +37°C° 0 mm 2 mps 713 mmHg 21%
    12:00 +38°C° 0 mm 3 mps 713 mmHg 19%
    13:00 +38°C° 0 mm 3 mps 713 mmHg 19%
    14:00 +39°C° 0 mm 3 mps 713 mmHg 19%
    15:00 +40°C° 0 mm 4 mps 712 mmHg 19%
    16:00 +38°C° 0 mm 4 mps 712 mmHg 21%
    17:00 +37°C° 0 mm 3 mps 712 mmHg 23%
    18:00 +36°C° 0 mm 3 mps 712 mmHg 24%
    19:00 +35°C° 0 mm 3 mps 712 mmHg 27%
    20:00 +32°C° 0 mm 2 mps 712 mmHg 29%
    21:00 +31°C° 0 mm 2 mps 712 mmHg 32%
    22:00 +30°C° 0 mm 2 mps 712 mmHg 32%
    23:00 +30°C° 0 mm 1 mps 712 mmHg 32%

    29 July, Saturday

    Time Temperature Precipitation Wind Pressure Humidity
    00:00 +29°C° 0 mm 1 mps 712 mmHg 33%
    01:00 +29°C° 0 mm 1 mps 711 mmHg 33%
    02:00 +29°C° 0 mm 1 mps 711 mmHg 33%
    03:00 +29°C° 0 mm 1 mps 711 mmHg 34%
    04:00 +29°C° 0 mm 1 mps 711 mmHg 32%
    05:00 +30°C° 0 mm 1 mps 712 mmHg 31%
    06:00 +31°C° 0 mm 1 mps 712 mmHg 30%
    07:00 +34°C° 0 mm 2 mps 712 mmHg 27%
    08:00 +36°C° 0 mm 2 mps 713 mmHg 24%
    09:00 +38°C° 0 mm 3 mps 713 mmHg 21%
    10:00 +39°C° 0 mm 3 mps 713 mmHg 20%
    11:00 +40°C° 0 mm 3 mps 713 mmHg 18%
    12:00 +42°C° 0 mm 4 mps 713 mmHg 17%
    13:00 +42°C° 0 mm 4 mps 712 mmHg 17%
    14:00 +43°C° 0 mm 4 mps 712 mmHg 16%
    15:00 +43°C° 0 mm 4 mps 712 mmHg 16%
    16:00 +42°C° 0 mm 4 mps 712 mmHg 17%
    17:00 +41°C° 0 mm 4 mps 711 mmHg 19%
    18:00 +39°C° 0 mm 3 mps 711 mmHg 20%
    19:00 +37°C° 0 mm 3 mps 711 mmHg 23%
    20:00 +36°C° 0 mm 2 mps 711 mmHg 25%
    21:00 +33°C° 0 mm 1 mps 711 mmHg 27%
    22:00 +33°C° 0 mm 1 mps 711 mmHg 28%
    23:00 +32°C° 0 mm 1 mps 711 mmHg 28%

    30 July, Sunday

    Time Temperature Precipitation Wind Pressure Humidity
    00:00 +32°C° 0 mm 1 mps 711 mmHg 29%
    01:00 +31°C° 0 mm 1 mps 710 mmHg 29%
    02:00 +31°C° 0 mm 1 mps 710 mmHg 30%
    03:00 +31°C° 0 mm 1 mps 710 mmHg 30%
    04:00 +31°C° 0 mm 1 mps 710 mmHg 30%
    05:00 +32°C° 0 mm 1 mps 710 mmHg 29%
    06:00 +32°C° 0 mm 1 mps 711 mmHg 29%
    07:00 +35°C° 0 mm 2 mps 711 mmHg 26%
    08:00 +37°C° 0 mm 2 mps 711 mmHg 23%
    09:00 +39°C° 0 mm 3 mps 712 mmHg 20%
    10:00 +39°C° 0 mm 3 mps 712 mmHg 19%
    11:00 +41°C° 0 mm 4 mps 711 mmHg 18%
    12:00 +42°C° 0 mm 4 mps 711 mmHg 17%
    13:00 +42°C° 0 mm 4 mps 711 mmHg 18%
    14:00 +42°C° 0 mm 4 mps 711 mmHg 19%
    15:00 +42°C° 0 mm 5 mps 710 mmHg 20%
    16:00 +40°C° 0 mm 4 mps 710 mmHg 23%
    17:00 +38°C° 0 mm 4 mps 710 mmHg 26%
    18:00 +37°C° 0 mm 3 mps 710 mmHg 30%
    19:00 +35°C° 0 mm 2 mps 710 mmHg 32%
    20:00 +34°C° 0 mm 2 mps 710 mmHg 35%
    21:00 +32°C° 0 mm 1 mps 710 mmHg 38%
    22:00 +32°C° 0 mm 1 mps 710 mmHg 38%
    23:00 +31°C° 0 mm 1 mps 710 mmHg 38%

    31 July, Monday

    Time Temperature Precipitation Wind Pressure Humidity
    00:00 +31°C° 0 mm 1 mps 709 mmHg 38%
    01:00 +31°C° 0 mm 1 mps 709 mmHg 37%
    02:00 +31°C° 0 mm 1 mps 709 mmHg 37%
    03:00 +30°C° 0 mm 1 mps 709 mmHg 37%
    04:00 +31°C° 0 mm 1 mps 709 mmHg 35%
    05:00 +32°C° 0 mm 2 mps 709 mmHg 34%
    06:00 +32°C° 0 mm 2 mps 709 mmHg 32%
    07:00 +35°C° 0 mm 2 mps 710 mmHg 27%
    08:00 +38°C° 0 mm 3 mps 710 mmHg 23%
    09:00 +40°C° 0 mm 3 mps 710 mmHg 18%
    10:00 +42°C° 0 mm 3 mps 710 mmHg 17%
    11:00 +43°C° 0 mm 4 mps 710 mmHg 15%
    12:00 +44°C° 0 mm 4 mps 710 mmHg 14%
    13:00 +44°C° 0 mm 4 mps 709 mmHg 14%
    14:00 +45°C° 0 mm 5 mps 709 mmHg 14%
    15:00 +46°C° 0 mm 5 mps 709 mmHg 14%
    16:00 +43°C° 0 mm 4 mps 709 mmHg 16%
    17:00 +42°C° 0 mm 4 mps 709 mmHg 18%
    18:00 +40°C° 0 mm 3 mps 709 mmHg 20%
    19:00 +38°C° 0 mm 2 mps 709 mmHg 23%
    20:00 +37°C° 0 mm 2 mps 709 mmHg 25%
    21:00 +34°C° 0 mm 1 mps 709 mmHg 28%
    22:00 +34°C° 0 mm 1 mps 709 mmHg 28%
    23:00 +33°C° 0 mm 1 mps 709 mmHg 28%
    Show more